• In Deutschland
  • Länderverzeichnis
  • Für 7 Tage
  • Wassertemperatur
  • Satellitenkarten
  • Wetterkarte
  • Widgets
  • user-avatar
    Anmelden

    Stündliche Wetter Mykhal'cha

    Heute, 22 Juli, Sonntag

    Zeit Temperatur Niederschläge Wind Luftdruck Luftfeuchtigkeit
    00:00 +20°C° 0 mm 3 m/S 735 mmHg 94%
    01:00 +20°C° 0 mm 2 m/S 735 mmHg 95%
    02:00 +18°C° 0 mm 1 m/S 734 mmHg 95%
    03:00 +17°C° 0 mm 3 m/S 734 mmHg 97%
    04:00 +17°C° 0 mm 2 m/S 734 mmHg 96%
    05:00 +17°C° 0 mm 2 m/S 734 mmHg 92%
    06:00 +18°C° 0 mm 2 m/S 734 mmHg 88%
    07:00 +19°C° 0 mm 2 m/S 734 mmHg 89%
    08:00 +22°C° 0 mm 1 m/S 734 mmHg 86%
    09:00 +23°C° 0 mm 2 m/S 735 mmHg 80%
    10:00 +25°C° 0 mm 2 m/S 735 mmHg 75%
    11:00 +26°C° 0 mm 2 m/S 735 mmHg 73%
    12:00 +26°C° 0 mm 2 m/S 734 mmHg 70%
    13:00 +27°C° 0 mm 1 m/S 734 mmHg 66%
    14:00 +27°C° 0 mm 2 m/S 733 mmHg 65%
    15:00 +28°C° 0 mm 3 m/S 733 mmHg 64%
    16:00 +27°C° 0 mm 3 m/S 733 mmHg 65%
    17:00 +27°C° 0 mm 3 m/S 733 mmHg 70%
    18:00 +26°C° 0 mm 2 m/S 732 mmHg 77%
    19:00 +25°C° 0 mm 1 m/S 732 mmHg 81%
    20:00 +24°C° 0 mm 1 m/S 732 mmHg 89%
    21:00 +23°C° 0 mm 2 m/S 732 mmHg 95%
    22:00 +23°C° 0 mm 1 m/S 732 mmHg 92%
    23:00 +23°C° 0 mm 2 m/S 732 mmHg 90%

    Morgen, 23 Juli, Montag

    Zeit Temperatur Niederschläge Wind Luftdruck Luftfeuchtigkeit
    00:00 +21°C° 0 mm 2 m/S 732 mmHg 94%
    01:00 +20°C° 0 mm 2 m/S 732 mmHg 95%
    02:00 +20°C° 0 mm 2 m/S 731 mmHg 97%
    03:00 +19°C° 0 mm 2 m/S 731 mmHg 98%
    04:00 +19°C° 0 mm 3 m/S 731 mmHg 100%
    05:00 +19°C° 0 mm 3 m/S 731 mmHg 100%
    06:00 +19°C° 0 mm 3 m/S 731 mmHg 100%
    07:00 +19°C° 0 mm 4 m/S 731 mmHg 100%
    08:00 +19°C° 0 mm 3 m/S 731 mmHg 100%
    09:00 +19°C° 0 mm 3 m/S 731 mmHg 100%
    10:00 +20°C° 0 mm 4 m/S 732 mmHg 98%
    11:00 +21°C° 0 mm 4 m/S 731 mmHg 97%
    12:00 +22°C° 0 mm 5 m/S 731 mmHg 95%
    13:00 +22°C° 0 mm 5 m/S 730 mmHg 95%
    14:00 +23°C° 0 mm 5 m/S 729 mmHg 94%
    15:00 +23°C° 0 mm 5 m/S 729 mmHg 91%
    16:00 +25°C° 0 mm 4 m/S 729 mmHg 88%
    17:00 +25°C° 0 mm 4 m/S 729 mmHg 89%
    18:00 +25°C° 0 mm 4 m/S 729 mmHg 91%
    19:00 +23°C° 0 mm 4 m/S 729 mmHg 93%
    20:00 +22°C° 0 mm 4 m/S 729 mmHg 96%
    21:00 +22°C° 0 mm 4 m/S 729 mmHg 97%
    22:00 +21°C° 0 mm 4 m/S 729 mmHg 98%
    23:00 +21°C° 0 mm 4 m/S 729 mmHg 100%

    übermorgen, 24 Juli, Dienstag

    Zeit Temperatur Niederschläge Wind Luftdruck Luftfeuchtigkeit
    00:00 +21°C° 0 mm 4 m/S 729 mmHg 100%
    01:00 +20°C° 0 mm 3 m/S 729 mmHg 100%
    02:00 +20°C° 0 mm 3 m/S 729 mmHg 100%
    03:00 +20°C° 0 mm 2 m/S 729 mmHg 100%
    04:00 +20°C° 0 mm 2 m/S 729 mmHg 100%
    05:00 +20°C° 0 mm 3 m/S 729 mmHg 100%
    06:00 +20°C° 0 mm 3 m/S 729 mmHg 100%
    07:00 +20°C° 0 mm 4 m/S 730 mmHg 100%
    08:00 +20°C° 0 mm 3 m/S 730 mmHg 100%
    09:00 +20°C° 0 mm 3 m/S 730 mmHg 100%
    10:00 +20°C° 0 mm 3 m/S 731 mmHg 100%
    11:00 +20°C° 0 mm 3 m/S 731 mmHg 100%
    12:00 +22°C° 0 mm 4 m/S 730 mmHg 97%
    13:00 +22°C° 0 mm 4 m/S 730 mmHg 96%
    14:00 +23°C° 0 mm 4 m/S 730 mmHg 94%
    15:00 +25°C° 0 mm 4 m/S 730 mmHg 92%
    16:00 +25°C° 0 mm 4 m/S 730 mmHg 94%
    17:00 +25°C° 0 mm 4 m/S 730 mmHg 92%
    18:00 +25°C° 0 mm 5 m/S 730 mmHg 92%
    19:00 +25°C° 0 mm 4 m/S 730 mmHg 94%
    20:00 +24°C° 0 mm 3 m/S 730 mmHg 96%
    21:00 +24°C° 0 mm 3 m/S 730 mmHg 98%
    22:00 +23°C° 0 mm 2 m/S 731 mmHg 99%
    23:00 +23°C° 0 mm 2 m/S 731 mmHg 100%

    25 Juli, Mittwoch

    Zeit Temperatur Niederschläge Wind Luftdruck Luftfeuchtigkeit
    00:00 +21°C° 0 mm 2 m/S 731 mmHg 100%
    01:00 +21°C° 0 mm 2 m/S 731 mmHg 100%
    02:00 +22°C° 0 mm 1 m/S 731 mmHg 100%
    03:00 +22°C° 0 mm 1 m/S 731 mmHg 100%
    04:00 +22°C° 0 mm 1 m/S 731 mmHg 100%
    05:00 +22°C° 0 mm 1 m/S 732 mmHg 100%
    06:00 +22°C° 0 mm 1 m/S 732 mmHg 100%
    07:00 +22°C° 0 mm 1 m/S 732 mmHg 100%
    08:00 +23°C° 0 mm 1 m/S 732 mmHg 99%
    09:00 +23°C° 0 mm 2 m/S 733 mmHg 98%
    10:00 +24°C° 0 mm 3 m/S 733 mmHg 97%
    11:00 +24°C° 0,1 mm 3 m/S 733 mmHg 96%
    12:00 +24°C° 1,8 mm 3 m/S 733 mmHg 96%
    13:00 +24°C° 9,7 mm 3 m/S 732 mmHg 93%
    14:00 +25°C° 0,2 mm 2 m/S 732 mmHg 94%
    15:00 +25°C° 1 mm 2 m/S 732 mmHg 95%
    16:00 +26°C° 0,9 mm 2 m/S 732 mmHg 91%
    17:00 +26°C° 0,1 mm 3 m/S 732 mmHg 91%
    18:00 +26°C° 0 mm 2 m/S 732 mmHg 92%
    19:00 +25°C° 0 mm 2 m/S 732 mmHg 95%
    20:00 +24°C° 0 mm 3 m/S 733 mmHg 99%
    21:00 +24°C° 0 mm 3 m/S 733 mmHg 99%
    22:00 +22°C° 0 mm 4 m/S 733 mmHg 100%
    23:00 +22°C° 0,1 mm 3 m/S 733 mmHg 100%

    26 Juli, Donnerstag

    Zeit Temperatur Niederschläge Wind Luftdruck Luftfeuchtigkeit
    00:00 +21°C° 0,2 mm 3 m/S 733 mmHg 100%
    01:00 +21°C° 0,3 mm 2 m/S 733 mmHg 100%
    02:00 +21°C° 0 mm 2 m/S 733 mmHg 100%

    27 Juli, Freitag

    Zeit Temperatur Niederschläge Wind Luftdruck Luftfeuchtigkeit
    Mehr zeigen